Showing default

LEMUR 2 SIERRINI, 60579

Orbit data source: Space-Track

LEMUR 2 SIERRINI, 60579 is an American payload satellite in SSO that was launched on Fri, 16 Aug 2024 UTC via an FALCON 9 launch vehicle from the Air Force Western Test Range (AFWTR). Payload-class satellites include a variety of spacecraft equipped with specific instruments for various scientific and technological missions. These include communications satellites like Starlink; space stations such as the ISS; scientific satellites like the Hubble; Earth observation satellites from companies like Planet Labs, Umbra, and HawkEye 360; GPS; miniature CubeSats for education and research; and military/defense satellites.

Loading next visibility...
Identifier
60579, 2024-149DR
Orbit
SSO
Country
Flag of USUS
Related business
Manufacturer
Spire/Glasgow
Mission
Operational Commercial Com/MetRO
Bus & Motor
CUBESAT 3U, Unknown motor
Mass
7.6 kg wet, 7.6 kg dry
Launch date (UTC)
2024-08-16 (2 years ago)
Launch vehicle
FALCON 9
Launch site
Air Force Western Test Range (AFWTR)
Object type
Payload
Rocket body
Debris
Shape & HBR
Box + 2 Pan, 0.5 m
Radar Cross Section
0.063 m², Small (<0.1 m²)

Expand to show TLE details & history
Last TLE update: 8 hours ago

TLE from 8 hours ago
0 LEMUR 2 SIERRINI
1 60579U 24149DR  26127.21195578  .00007437  00000-0  46026-3 0  9995
2 60579  97.6832 209.6542 0003714 329.9497  30.1518 15.10101588 94270
Epoch: 2026-05-07T05:05Z
TLE epoch observation values (Epoch: 2026-05-07T05:05:12.979Z)
Latitude
-0.00005°
Longitude
-91.71121°
Altitude
536.738 km
Speed
7.595 km/s
True Right ascension
13h 58m 37s
True Declination
0° 00' 00"
Sunlit
Object was in full shadow at epoch
Visualization orbit readout
Latitude
Unknown
Longitude
Unknown
Altitude
Unknown
Speed
Unknown
Apparent Right ascension
Unknown
Apparent Declination
Unknown
Sunlit
N/A
Visualization observer readout
Local Sidereal Time
21:27:49
Azimuth
Unknown
Elevation
Unknown
Doppler factor
Unknown
Orbital elements
Apogee altitude
535.448 km
Perigee altitude
530.314 km
Semi-major axis
6,911.018 km
Eccentricity
0.00037
Inclination
97.6832°
RAAN
209.6542°
Arg. of periapsis
329.9497°
True anomaly
30.17319°
Mean anomaly
30.1518°
Eccentric anomaly
30.16249°
Mean motion
3.77772 °/min
Orbital period
95.3 mins
BSTAR
0.00046026
Loading maneuver chart data...
Computing Atmospheric mass density...
Loading historical data...
Loading historical data...
Loading historical data...
Loading historical data...
Loading historical data...
Loading historical data...
Loading historical data...

Documentation

Showing up to 5 results
|